Total_Precipitation_Accumulation
2.66 2.55 2.58 2.52 2.39 2.24 2.13 2.04 2.02 1.90 1.86 1.80 1.78 1.77 1.66 1.63 1.68 1.71 1.68 1.71 1.84 1.85 1.81 1.83 1.84 1.92 2.04 2.04 2.09 2.21 2.39 2.61 2.74 2.44 2.25 2.18 2.18 2.22 2.25 2.07 1.91 1.78 1.62
2.22 2.30 2.38 2.30 2.22 2.10 2.03 2.01 1.97 1.83 1.77 1.75 1.73 1.69 1.51 1.44 1.59 1.66 1.62 1.59 1.72 1.73 1.70 1.77 1.77 1.82 1.90 1.95 2.06 2.17 2.32 2.50 2.60 2.64 2.47 2.30 2.21 2.21 2.26 2.20 1.89 1.67 1.59
1.89 1.91 1.98 1.98 1.94 1.91 1.73 1.70 1.71 1.69 1.66 1.64 1.53 1.52 1.46 1.40 1.46 1.48 1.48 1.45 1.49 1.56 1.59 1.67 1.72 1.82 1.82 1.86 1.93 1.99 2.12 2.23 2.43 2.52 2.41 2.30 2.22 2.12 2.29 2.14 1.99 2.09 1.71
1.81 1.88 1.85 1.85 1.89 1.91 1.80 1.68 1.60 1.57 1.56 1.53 1.45 1.40 1.39 1.35 1.23 1.19 1.22 1.30 1.39 1.37 1.35 1.47 1.55 1.63 1.67 1.78 1.77 1.84 1.94 2.14 2.33 2.41 2.27 2.12 2.08 2.12 2.25 2.24 2.15 2.07 1.90
1.66 1.74 1.80 1.75 1.69 1.70 1.74 1.61 1.41 1.34 1.30 1.39 1.32 1.26 1.28 1.19 1.04 1.07 1.13 1.13 1.24 1.27 1.25 1.29 1.32 1.38 1.40 1.45 1.44 1.62 1.83 2.02 2.14 2.24 2.18 2.11 2.05 2.19 2.16 2.09 2.08 2.04 1.89
1.50 1.64 1.72 1.68 1.62 1.56 1.59 1.55 1.48 1.41 1.37 1.34 1.32 1.27 1.18 1.00 1.00 0.97 0.99 1.05 1.14 1.25 1.32 1.29 1.19 1.16 1.13 1.07 1.13 1.27 1.51 1.78 2.04 2.17 2.12 2.10 2.07 2.12 2.21 2.18 2.16 2.22 2.16
1.52 1.52 1.57 1.62 1.67 1.63 1.57 1.55 1.55 1.56 1.53 1.42 1.28 1.24 1.17 1.06 0.98 0.82 0.79 0.88 1.10 1.24 1.33 1.32 1.09 0.99 1.10 1.08 1.12 1.13 1.24 1.40 1.68 1.99 2.10 2.02 2.04 2.14 2.33 2.39 2.33 2.32 2.25
1.50 1.43 1.44 1.45 1.49 1.50 1.54 1.56 1.55 1.54 1.50 1.42 1.28 1.23 1.17 0.98 0.87 0.75 0.75 0.81 0.99 1.02 1.05 1.15 1.20 1.19 1.10 1.14 1.16 1.25 1.31 1.41 1.49 1.63 1.88 1.88 1.86 2.04 2.25 2.31 2.30 2.24 2.18
1.35 1.28 1.24 1.21 1.28 1.31 1.37 1.46 1.56 1.56 1.45 1.32 1.22 1.18 1.12 0.98 0.89 0.82 0.84 0.87 0.96 0.91 0.86 0.91 0.97 1.02 1.00 1.06 1.17 1.38 1.44 1.54 1.50 1.67 1.70 1.64 1.68 1.75 1.78 1.92 2.23 2.44 2.35
1.27 1.17 1.11 1.14 1.23 1.28 1.31 1.43 1.50 1.54 1.39 1.20 1.12 1.13 1.08 1.02 0.90 0.75 0.73 0.76 0.90 0.92 0.95 0.99 0.91 0.79 0.84 0.94 1.16 1.44 1.62 1.66 1.69 1.81 1.79 1.76 1.66 1.64 1.60 1.70 2.10 2.42 2.44
1.14 1.13 1.16 1.18 1.27 1.28 1.38 1.48 1.43 1.31 1.29 1.19 1.13 1.13 1.02 0.90 0.78 0.65 0.63 0.67 0.81 0.89 0.92 0.98 0.97 0.81 0.72 0.79 1.01 1.25 1.45 1.51 1.75 2.00 1.87 1.71 1.69 1.67 1.64 1.64 1.85 2.04 2.06
1.11 1.17 1.23 1.21 1.14 1.12 1.32 1.44 1.39 1.33 1.27 1.22 1.17 1.11 0.97 0.83 0.71 0.62 0.54 0.51 0.56 0.77 0.97 0.98 0.96 0.90 0.83 0.89 1.02 1.18 1.32 1.51 1.75 1.88 1.70 1.54 1.46 1.45 1.50 1.48 1.49 1.53 1.60
1.10 1.25 1.30 1.24 1.27 1.25 1.25 1.30 1.37 1.38 1.25 1.14 1.11 1.04 0.94 0.86 0.75 0.59 0.51 0.47 0.50 0.62 0.83 0.91 0.88 0.83 0.91 1.11 1.24 1.34 1.50 1.73 1.79 1.67 1.55 1.43 1.33 1.38 1.37 1.36 1.36 1.42 1.40
1.17 1.26 1.28 1.27 1.34 1.34 1.26 1.11 1.08 1.09 1.06 0.99 0.95 0.88 0.87 0.88 0.73 0.61 0.59 0.55 0.57 0.63 0.77 0.93 0.98 0.98 1.12 1.29 1.43 1.52 1.64 1.76 1.64 1.51 1.45 1.34 1.24 1.32 1.36 1.32 1.45 1.51 1.52
1.11 1.17 1.18 1.18 1.22 1.28 1.19 1.04 0.96 0.88 0.83 0.81 0.75 0.67 0.72 0.72 0.60 0.56 0.51 0.54 0.62 0.68 0.77 0.94 1.08 1.12 1.22 1.36 1.48 1.54 1.59 1.61 1.55 1.43 1.37 1.30 1.24 1.24 1.21 1.18 1.32 1.44 1.49
1.01 1.00 0.94 0.97 1.00 1.01 1.04 0.99 0.79 0.63 0.55 0.51 0.51 0.50 0.47 0.46 0.44 0.42 0.43 0.49 0.57 0.68 0.81 1.08 1.18 1.16 1.20 1.26 1.37 1.47 1.47 1.46 1.44 1.46 1.46 1.43 1.35 1.25 1.20 1.15 1.18 1.28 1.39
0.96 0.93 0.81 0.74 0.81 0.85 0.84 0.93 0.88 0.64 0.44 0.36 0.38 0.42 0.41 0.38 0.36 0.35 0.39 0.47 0.55 0.68 0.84 1.06 1.17 1.20 1.21 1.23 1.26 1.33 1.38 1.39 1.35 1.38 1.41 1.36 1.27 1.19 1.15 1.15 1.16 1.25 1.29
0.81 0.80 0.75 0.74 0.72 0.70 0.69 0.70 0.74 0.80 0.72 0.55 0.44 0.43 0.42 0.42 0.43 0.40 0.43 0.50 0.58 0.65 0.84 1.02 1.14 1.18 1.21 1.24 1.24 1.22 1.28 1.34 1.30 1.26 1.30 1.28 1.21 1.18 1.19 1.20 1.20 1.16 1.18
0.81 0.81 0.77 0.71 0.66 0.62 0.59 0.57 0.57 0.64 0.68 0.69 0.63 0.55 0.53 0.52 0.54 0.54 0.58 0.63 0.72 0.76 0.82 0.93 1.03 1.11 1.11 1.12 1.17 1.20 1.22 1.27 1.24 1.21 1.24 1.26 1.24 1.22 1.17 1.10 1.07 0.98 1.02
0.76 0.75 0.75 0.72 0.60 0.56 0.55 0.56 0.55 0.60 0.63 0.66 0.69 0.69 0.68 0.72 0.79 0.75 0.70 0.73 0.77 0.76 0.77 0.87 0.97 1.00 1.00 0.96 0.97 1.01 1.04 1.06 1.08 1.12 1.17 1.14 1.08 1.06 1.01 0.97 0.97 0.99 1.03
0.67 0.72 0.73 0.62 0.53 0.50 0.53 0.53 0.51 0.56 0.59 0.61 0.57 0.61 0.77 0.82 0.86 0.82 0.80 0.84 0.90 0.89 0.86 0.88 0.92 0.94 0.94 0.91 0.89 0.87 0.89 0.94 0.97 0.98 1.04 1.04 0.97 0.94 0.90 0.84 0.82 0.83 0.86
0.60 0.64 0.63 0.56 0.52 0.47 0.47 0.49 0.50 0.52 0.56 0.61 0.59 0.59 0.75 0.75 0.79 0.83 0.88 0.95 0.99 0.95 0.92 0.92 0.90 0.89 0.91 0.93 0.90 0.88 0.87 0.89 0.89 0.91 0.94 0.93 0.90 0.86 0.78 0.76 0.74 0.73 0.74
0.58 0.59 0.62 0.60 0.56 0.51 0.49 0.49 0.51 0.55 0.56 0.59 0.62 0.64 0.70 0.77 0.83 0.90 0.97 0.98 0.99 0.99 0.92 0.87 0.94 0.99 0.92 0.87 0.82 0.80 0.80 0.82 0.81 0.86 0.95 0.96 0.89 0.80 0.75 0.72 0.70 0.70 0.69
0.59 0.56 0.56 0.58 0.60 0.61 0.61 0.58 0.52 0.49 0.49 0.52 0.56 0.57 0.62 0.68 0.75 0.80 0.89 0.94 1.00 1.02 0.99 0.96 1.01 0.95 0.84 0.79 0.76 0.75 0.78 0.83 0.83 0.86 0.90 0.93 0.88 0.79 0.72 0.69 0.67 0.70 0.72
0.56 0.58 0.56 0.50 0.48 0.51 0.57 0.57 0.55 0.53 0.50 0.47 0.49 0.52 0.56 0.61 0.67 0.72 0.79 0.84 0.89 0.98 0.94 0.94 0.94 0.85 0.75 0.70 0.69 0.71 0.80 0.78 0.74 0.79 0.85 0.89 0.82 0.76 0.72 0.66 0.65 0.67 0.70
0.51 0.52 0.55 0.49 0.43 0.42 0.42 0.43 0.44 0.48 0.52 0.53 0.51 0.53 0.58 0.58 0.60 0.65 0.69 0.75 0.81 0.84 0.84 0.88 0.88 0.79 0.70 0.66 0.65 0.63 0.59 0.51 0.48 0.55 0.68 0.74 0.70 0.65 0.67 0.67 0.62 0.65 0.69